Location: Caltech
(34.1382°N, 118.1253°W)
Time: 10:14:34
(UTC-07:00)

ERBS - Visible Passes

Search period start: 27 July 2016 00:00
Search period end: 06 August 2016 00:00
Orbit: 435 x 450 km, 57.0° (Epoch: 26 July)

Date Brightness Start Highest point End Pass type
(mag) Time Alt. Az. Time Alt. Az. Time Alt. Az.
27 Jul 3.8 21:19:46 10° WNW 21:22:52 30° WSW 21:24:35 19° S visible
28 Jul 2.9 20:39:56 10° NW 20:43:19 54° SW 20:46:41 10° SSE visible
30 Jul 5.4 21:00:07 10° WSW 21:00:30 10° WSW 21:00:52 10° SW visible
31 Jul 5.0 20:18:41 10° WNW 20:21:01 17° WSW 20:23:21 10° SSW visible
